This is the latest recevied weather packets stored in our database for station/object KF4BAQ-10. If no packets are shown the sender has not sent any weather packets the latest 10 day(s).
| Time | Temp. | Humidity | Pressure | Rain* | Wind** | Luminosity | Snow |
|---|---|---|---|---|---|---|---|
| 1787718047 | 18.89° C | 47% | 1020.1 hPa | - | - | - | - |
| 1787717146 | 19.44° C | 46% | 1020.1 hPa | - | - | - | - |
| 1787716246 | 19.44° C | 46% | 1020.3 hPa | - | - | - | - |
| 1787715346 | 19.44° C | 46% | 1020.1 hPa | - | - | - | - |
| 1787714446 | 18.89° C | 47% | 1020.2 hPa | - | - | - | - |
| 1787713545 | 18.89° C | 44% | 1020.2 hPa | - | - | - | - |
| 1787712645 | 18.89° C | 47% | 1020.2 hPa | - | - | - | - |
| 1787711744 | 18.89° C | 45% | 1020.3 hPa | - | - | - | - |
| 1787710844 | 18.89° C | 46% | 1020.4 hPa | - | - | - | - |
| 1787709943 | 19.44° C | 43% | 1020.5 hPa | - | - | - | - |
| 1787709043 | 18.89° C | 44% | 1020.5 hPa | - | - | - | - |
| 1787708143 | 19.44° C | 43% | 1020.4 hPa | - | - | - | - |
| 1787707238 | 18.89° C | 44% | 1020.3 hPa | - | - | - | - |
| 1787706338 | 19.44° C | 43% | 1020 hPa | - | - | - | - |
| 1787705438 | 19.44° C | 43% | 1019.9 hPa | - | - | - | - |
| 1787704537 | 18.89° C | 43% | 1019.9 hPa | - | - | - | - |
| 1787703637 | 18.89° C | 43% | 1019.9 hPa | - | - | - | - |
| 1787702737 | 18.89° C | 43% | 1019.7 hPa | - | - | - | - |
| 1787701837 | 18.89° C | 43% | 1019.8 hPa | - | - | - | - |
| 1787700937 | 18.89° C | 44% | 1019.8 hPa | - | - | - | - |
| 1787700037 | 19.44° C | 44% | 1019.8 hPa | - | - | - | - |
| 1787699137 | 19.44° C | 44% | 1019.8 hPa | - | - | - | - |
| 1787698236 | 19.44° C | 43% | 1019.9 hPa | - | - | - | - |
| 1787697336 | 19.44° C | 43% | 1019.9 hPa | - | - | - | - |
| 1787696436 | 19.44° C | 44% | 1019.9 hPa | - | - | - | - |
* Rain since midnight (hover to see other rain measurements)
** Current wind speed in m/s (hover to see current wind gust speed)